This is the latest recevied weather packets stored in our database for station/object N0TKN. If no packets are shown the sender has not sent any weather packets the latest 1 day(s).
| Time | Temp. | Humidity | Pressure | Rain* | Wind** | Luminosity | Snow |
|---|---|---|---|---|---|---|---|
| 1778075124 | 8.89° C | 96% | 1015.1 hPa | 0 mm | - | 136 W/m² | - |
| 1778074524 | 8.89° C | 96% | 1015.2 hPa | 0 mm | - | 103 W/m² | - |
| 1778073325 | 8.33° C | 96% | 1015.3 hPa | 0 mm | - | 133 W/m² | - |
| 1778072725 | 8.33° C | 97% | 1015.5 hPa | 0 mm | - | 89 W/m² | - |
| 1778072125 | 8.33° C | 96% | 1015.3 hPa | 0 mm | - | 90 W/m² | - |
| 1778071525 | 7.78° C | 96% | 1015.4 hPa | 0 mm | - | 70 W/m² | - |
| 1778070925 | 7.78° C | 97% | 1015.6 hPa | 0 mm | - | 47 W/m² | - |
| 1778069126 | 7.22° C | 99% | 1015.6 hPa | 0 mm | - | 25 W/m² | - |
| 1778067926 | 7.22° C | 99% | 1015.1 hPa | 0 mm | - | 16 W/m² | - |
| 1778066127 | 7.22° C | 99% | 1014.8 hPa | 0 mm | - | 1 W/m² | - |
| 1778064927 | 7.22° C | 99% | 1014.5 hPa | 0 mm | - | 0 W/m² | - |
| 1778064327 | 7.78° C | 99% | 1014.4 hPa | 0 mm | - | 0 W/m² | - |
| 1778063127 | 7.22° C | 99% | 1013.9 hPa | 0 mm | - | 0 W/m² | - |
| 1778061928 | 7.78° C | 99% | 1013.8 hPa | 0.25 mm | - | 0 W/m² | - |
| 1778061328 | 7.78° C | 99% | 1013.3 hPa | 0.25 mm | - | 0 W/m² | - |
| 1778060728 | 7.78° C | 99% | 1013.7 hPa | 0.25 mm | - | 0 W/m² | - |
| 1778058928 | 7.78° C | 99% | 1012.6 hPa | 0 mm | - | 0 W/m² | - |
| 1778057728 | 7.78° C | 99% | 1012.7 hPa | 0.51 mm | - | 0 W/m² | - |
| 1778057129 | 7.78° C | 99% | 1012.9 hPa | 1.27 mm | - | 0 W/m² | - |
| 1778052930 | 7.22° C | 99% | 1013.6 hPa | 0.25 mm | - | 0 W/m² | - |
| 1778051730 | 7.22° C | 99% | 1013.5 hPa | 0 mm | - | 0 W/m² | - |
| 1778051116 | 7.22° C | 99% | 1013.4 hPa | 0 mm | - | 0 W/m² | - |
| 1778050516 | 7.22° C | 99% | 1013.3 hPa | 0 mm | - | 0 W/m² | - |
| 1778049916 | 7.22° C | 99% | 1013.5 hPa | 0 mm | - | 0 W/m² | - |
| 1778047517 | 7.22° C | 99% | 1013.1 hPa | 0.76 mm | - | 0 W/m² | - |
* Rain latest hour (hover to see other rain measurements)
** Current wind speed in m/s (hover to see current wind gust speed)